SB KEPS @ AMSAT $ORB07354.O Orbital Elements 07354.OSCAR
HR AMSAT ORBITAL ELEMENTS FOR OSCAR SATELLITES FROM WA5QGD FORT WORTH,TX December 20, 2007 Send Subscribe/unsubscribe to KEPS at http://www.amsat.org/mailman/listinfo/keps BID: ORB07354.O TO ALL RADIO AMATEURS BT
Satellite: PO-63 Catalog number: 29712 Epoch time: 07353.78448119 Element set: 0017 Inclination: 097.9019 deg RA of node: 050.1700 deg Eccentricity: 0.0013183 Arg of perigee: 244.9996 deg Mean anomaly: 114.9837 deg Mean motion: 14.79947617 rev/day Decay rate: 7.78e-06 rev/day^2 Epoch rev: 05078 Checksum: 345
Satellite: VO-52 Catalog number: 28650 Epoch time: 07353.25498731 Element set: 807 Inclination: 097.8131 deg RA of node: 059.6312 deg Eccentricity: 0.0027391 Arg of perigee: 013.2644 deg Mean anomaly: 346.9255 deg Mean motion: 14.81397531 rev/day Decay rate: 8.6e-07 rev/day^2 Epoch rev: 14181 Checksum: 313
Satellite: AO-40 Catalog number: 26609 Epoch time: 07351.47294093 Element set: 979 Inclination: 007.1448 deg RA of node: 106.6204 deg Eccentricity: 0.7931490 Arg of perigee: 032.8942 deg Mean anomaly: 357.2143 deg Mean motion: 01.25583130 rev/day Decay rate: -9.7e-07 rev/day^2 Epoch rev: 3274 Checksum: 307
Satellite: SO-33 Catalog number: 25509 Epoch time: 07353.77977827 Element set: 0089 Inclination: 031.4318 deg RA of node: 256.4182 deg Eccentricity: 0.0355847 Arg of perigee: 249.8599 deg Mean anomaly: 106.3411 deg Mean motion: 14.28187474 rev/day Decay rate: -9.6e-07 rev/day^2 Epoch rev: 47780 Checksum: 357
Satellite: FO-29 Catalog number: 24278 Epoch time: 07353.89886707 Element set: 660 Inclination: 098.5781 deg RA of node: 288.8168 deg Eccentricity: 0.0350476 Arg of perigee: 322.3889 deg Mean anomaly: 035.3197 deg Mean motion: 13.52934624 rev/day Decay rate: -5.4e-07 rev/day^2 Epoch rev: 56001 Checksum: 356
Satellite: RS-15 Catalog number: 23439 Epoch time: 07353.70335505 Element set: 0122 Inclination: 064.8184 deg RA of node: 066.9081 deg Eccentricity: 0.0152889 Arg of perigee: 156.9823 deg Mean anomaly: 203.8045 deg Mean motion: 11.27552489 rev/day Decay rate: -3.9e-07 rev/day^2 Epoch rev: 53461 Checksum: 315
Satellite: UO-11 Catalog number: 14781 Epoch time: 07353.49023789 Element set: 0549 Inclination: 098.1749 deg RA of node: 019.6175 deg Eccentricity: 0.0008171 Arg of perigee: 298.9935 deg Mean anomaly: 061.0432 deg Mean motion: 14.79602255 rev/day Decay rate: -1.27e-06 rev/day^2 Epoch rev: 27713 Checksum: 328
Satellite: AO-10 Catalog number: 14129 Epoch time: 07353.10457287 Element set: 452 Inclination: 025.9582 deg RA of node: 240.1837 deg Eccentricity: 0.6045084 Arg of perigee: 082.6724 deg Mean anomaly: 338.2003 deg Mean motion: 02.05872292 rev/day Decay rate: -1.99e-06 rev/day^2 Epoch rev: 18437 Checksum: 302
Satellite: AO-07 Catalog number: 07530 Epoch time: 07353.53193531 Element set: 0057 Inclination: 101.4918 deg RA of node: 025.9165 deg Eccentricity: 0.0011821 Arg of perigee: 254.6209 deg Mean anomaly: 105.3559 deg Mean motion: 12.53573149 rev/day Decay rate: -2.8e-07 rev/day^2 Epoch rev: 51434 Checksum: 282
/EX SB KEPS @ AMSAT $ORB07354.D Orbital Elements 07354.MICROS
HR AMSAT ORBITAL ELEMENTS FOR THE MICROSATS FROM WA5QGD FORT WORTH,TX December 20, 2007 Send Subscribe/unsubscribe to KEPS at http://www.amsat.org/mailman/listinfo/keps BID: ORB07354.D TO ALL RADIO AMATEURS BT
Satellite: LIBERT Catalog number: 31129 Epoch time: 07353.69454929 Element set: 599 Inclination: 098.0651 deg RA of node: 059.5851 deg Eccentricity: 0.0102704 Arg of perigee: 172.2843 deg Mean anomaly: 187.9946 deg Mean motion: 14.51985558 rev/day Decay rate: 3.38e-06 rev/day^2 Epoch rev: 3572 Checksum: 343
Satellite: CP3 Catalog number: 31128 Epoch time: 07353.77840088 Element set: 0209 Inclination: 098.0644 deg RA of node: 059.6409 deg Eccentricity: 0.0103270 Arg of perigee: 171.9823 deg Mean anomaly: 188.3044 deg Mean motion: 14.51895778 rev/day Decay rate: -4.7e-07 rev/day^2 Epoch rev: 03575 Checksum: 322
Satellite: CP4 Catalog number: 31122 Epoch time: 07353.72377727 Element set: 0214 Inclination: 098.0652 deg RA of node: 060.8186 deg Eccentricity: 0.0086263 Arg of perigee: 168.9122 deg Mean anomaly: 191.3983 deg Mean motion: 14.55065011 rev/day Decay rate: 5.51e-06 rev/day^2 Epoch rev: 03583 Checksum: 294
Satellite: NO-61 Catalog number: 29664 Epoch time: 07353.91172859 Element set: 0721 Inclination: 051.6153 deg RA of node: 179.6119 deg Eccentricity: 0.0002900 Arg of perigee: 301.2709 deg Mean anomaly: 058.7991 deg Mean motion: 16.28182950 rev/day Decay rate: 8.59736e-03 rev/day^2 Epoch rev: 05791 Checksum: 340
Satellite: HO-59 Catalog number: 29484 Epoch time: 07353.72924077 Element set: 959 Inclination: 098.2595 deg RA of node: 073.6291 deg Eccentricity: 0.0151177 Arg of perigee: 313.0501 deg Mean anomaly: 045.8085 deg Mean motion: 15.67447924 rev/day Decay rate: 6.4577e-04 rev/day^2 Epoch rev: 6997 Checksum: 368
Satellite: CO-56 Catalog number: 28941 Epoch time: 07353.68385535 Element set: 0723 Inclination: 098.1110 deg RA of node: 076.2426 deg Eccentricity: 0.0198134 Arg of perigee: 332.6850 deg Mean anomaly: 026.4042 deg Mean motion: 15.47419185 rev/day Decay rate: 2.8059e-04 rev/day^2 Epoch rev: 10204 Checksum: 310
Satellite: AO-51 Catalog number: 28375 Epoch time: 07353.39335672 Element set: 0986 Inclination: 098.0903 deg RA of node: 022.9554 deg Eccentricity: 0.0084631 Arg of perigee: 341.8817 deg Mean anomaly: 017.9361 deg Mean motion: 14.40590984 rev/day Decay rate: 1.8e-07 rev/day^2 Epoch rev: 18237 Checksum: 332
Satellite: CO-57 Catalog number: 27848 Epoch time: 07353.53597537 Element set: 0149 Inclination: 098.7176 deg RA of node: 358.4396 deg Eccentricity: 0.0009208 Arg of perigee: 283.2813 deg Mean anomaly: 076.7340 deg Mean motion: 14.20363663 rev/day Decay rate: 5.2e-07 rev/day^2 Epoch rev: 23176 Checksum: 337
Satellite: CO-55 Catalog number: 27844 Epoch time: 07353.63233488 Element set: 0193 Inclination: 098.7179 deg RA of node: 359.3981 deg Eccentricity: 0.0009100 Arg of perigee: 278.9420 deg Mean anomaly: 081.0728 deg Mean motion: 14.20549909 rev/day Decay rate: 7.4e-07 rev/day^2 Epoch rev: 23180 Checksum: 329
Satellite: SO-50 Catalog number: 27607 Epoch time: 07353.20899633 Element set: 0484 Inclination: 064.5586 deg RA of node: 243.2375 deg Eccentricity: 0.0075216 Arg of perigee: 315.8876 deg Mean anomaly: 043.6250 deg Mean motion: 14.71312022 rev/day Decay rate: -4.0e-08 rev/day^2 Epoch rev: 26834 Checksum: 303
Satellite: NO-44 Catalog number: 26931 Epoch time: 07353.56710514 Element set: 0760 Inclination: 067.0529 deg RA of node: 029.9511 deg Eccentricity: 0.0004965 Arg of perigee: 256.0417 deg Mean anomaly: 104.0142 deg Mean motion: 14.29504884 rev/day Decay rate: -2.01e-06 rev/day^2 Epoch rev: 32459 Checksum: 288
Satellite: MO-46 Catalog number: 26548 Epoch time: 07353.40448779 Element set: 976 Inclination: 064.5585 deg RA of node: 329.6419 deg Eccentricity: 0.0008081 Arg of perigee: 348.5229 deg Mean anomaly: 011.5682 deg Mean motion: 14.83210037 rev/day Decay rate: 1.13e-06 rev/day^2 Epoch rev: 39100 Checksum: 315
Satellite: GO-32 Catalog number: 25397 Epoch time: 07353.84273988 Element set: 0480 Inclination: 098.3908 deg RA of node: 032.6886 deg Eccentricity: 0.0001978 Arg of perigee: 068.1857 deg Mean anomaly: 291.9510 deg Mean motion: 14.23135743 rev/day Decay rate: -8.0e-08 rev/day^2 Epoch rev: 49056 Checksum: 345
Satellite: PO-28 Catalog number: 22829 Epoch time: 07353.46124155 Element set: 0829 Inclination: 098.3416 deg RA of node: 317.6475 deg Eccentricity: 0.0010505 Arg of perigee: 047.8579 deg Mean anomaly: 312.3503 deg Mean motion: 14.30174911 rev/day Decay rate: -6.1e-07 rev/day^2 Epoch rev: 74229 Checksum: 304
Satellite: IO-26 Catalog number: 22826 Epoch time: 07353.52609738 Element set: 0555 Inclination: 098.3528 deg RA of node: 316.5731 deg Eccentricity: 0.0009890 Arg of perigee: 072.5394 deg Mean anomaly: 287.6878 deg Mean motion: 14.29472965 rev/day Decay rate: 1.2e-07 rev/day^2 Epoch rev: 74205 Checksum: 345
Satellite: AO-27 Catalog number: 22825 Epoch time: 07353.58074010 Element set: 0854 Inclination: 098.3595 deg RA of node: 315.6328 deg Eccentricity: 0.0009403 Arg of perigee: 076.0666 deg Mean anomaly: 284.1597 deg Mean motion: 14.29225789 rev/day Decay rate: 3.8e-07 rev/day^2 Epoch rev: 74197 Checksum: 337
Satellite: LO-19 Catalog number: 20442 Epoch time: 07353.50030216 Element set: 0131 Inclination: 098.1901 deg RA of node: 347.0157 deg Eccentricity: 0.0011907 Arg of perigee: 358.6336 deg Mean anomaly: 001.4832 deg Mean motion: 14.32018855 rev/day Decay rate: 6.5e-07 rev/day^2 Epoch rev: 93521 Checksum: 266
Satellite: AO-16 Catalog number: 20439 Epoch time: 07353.49282068 Element set: 0208 Inclination: 098.2119 deg RA of node: 337.9866 deg Eccentricity: 0.0011245 Arg of perigee: 000.3629 deg Mean anomaly: 359.7567 deg Mean motion: 14.31778982 rev/day Decay rate: 1.6e-07 rev/day^2 Epoch rev: 93506 Checksum: 330
/EX SB KEPS @ AMSAT $ORB07354.W Orbital Elements 07354.WEATHER
HR AMSAT ORBITAL ELEMENTS FOR WEATHER SATELLITES FROM WA5QGD FORT WORTH,TX December 20, 2007 Send Subscribe/unsubscribe to KEPS at http://www.amsat.org/mailman/listinfo/keps BID: ORB07354.W TO ALL RADIO AMATEURS BT
Satellite: NOAA-18 Catalog number: 28654 Epoch time: 07353.88625322 Element set: 0239 Inclination: 098.8505 deg RA of node: 292.2174 deg Eccentricity: 0.0015169 Arg of perigee: 102.8585 deg Mean anomaly: 257.4286 deg Mean motion: 14.11122841 rev/day Decay rate: 4.47e-06 rev/day^2 Epoch rev: 13304 Checksum: 310
Satellite: NOAA-17 Catalog number: 27453 Epoch time: 07353.88846474 Element set: 0723 Inclination: 098.5603 deg RA of node: 058.5405 deg Eccentricity: 0.0010846 Arg of perigee: 273.5319 deg Mean anomaly: 086.4620 deg Mean motion: 14.23933534 rev/day Decay rate: -5.7e-07 rev/day^2 Epoch rev: 28514 Checksum: 322
